Content
SEND FEEDBACK

Daily
Averages
Monthly
Summary
United States of America

ST. LOUIS, MISSOURI


Home > North America > United States > Missouri
Elevation: 163 meters     Latitude: 38 45N     Longitude: 090 22W

WEATHER
 
SELECT A DAY
Number of Records: 196,649;   Date Range: 1/1/95 - 9/18/14
 
SHARE

PRINT THIS DATA

[ ← Previous Day ]
WEATHER ALMANAC - 18 MARCH, 2013
[ Next Day → ]
[ °F ]   °C
Weather ElementAverageHighLow
Temperature4.9 °C10 °C (4:54 pm)2.8 °C (12:54 am)
Dewpoint0.6 °C2.8 °C (9:54 am)-5.6 °C (10:54 pm)
Humidity76.4 %93 % (12:54 am)44 % (6:54 pm)
Barometer1009.1 hPa1017.6 hPa (11:54 pm)1005.8 hPa (4:07 am)
Wind Speed15.9 km/h33.3 km/h (4:54 pm)
Wind Gust44.4 km/h (3:54 pm)
Weather ElementAverage
Visibility12.4 km
Wind DirectionWSW (248.3 °)

Weather ElementTotal
Precipitation1.02 mm
Heating Degree Days11.9 (Base 18.3)
Averaged from 29 records on 18 March, 2013
WEATHER CONDITIONS BREAKOUT
WIND DIRECTION BREAKOUT
WEATHER BY HOUR - 18 MARCH, 2013
[ °F ]   °C
Local TimeTemperatureDewpointHumidityBarometerVisibilityWind DirectionWind SpeedGust SpeedPrecipitationEventsConditions
12:54 AM2.8 °C1.7 °C93 %1008.1 hPa9.7 kmNE (50°)11.1 km/h0.51 mmRainLight Rain
1:54 AM2.8 °C1.7 °C93 %1007.5 hPa14.5 kmNE (50°)11.1 km/h0 mmOvercast
2:54 AM2.8 °C1.7 °C93 %1006.8 hPa12.9 kmNE (50°)9.3 km/hOvercast
3:54 AM2.8 °C1.7 °C93 %1006.4 hPa4.8 kmNorth (360°)5.6 km/h0 mmOvercast
4:07 AM3 °C2 °C93 %1005.8 hPa4 kmNorth (350°)5.6 km/h0.25 mmOvercast
4:54 AM2.8 °C1.7 °C93 %1006.4 hPa4.8 kmCalm0.25 mmOvercast
5:54 AM2.8 °C1.7 °C93 %1006.4 hPa9.7 kmCalmOvercast
6:54 AM2.8 °C1.7 °C93 %1006.8 hPa4.8 kmWest (280°)5.6 km/hOvercast
7:50 AM3 °C1 °C87 %1006.4 hPa4.8 kmWNW (290°)9.3 km/hOvercast
7:54 AM2.8 °C1.1 °C89 %1006.8 hPa4.8 kmWNW (290°)7.4 km/hOvercast
8:04 AM3 °C2 °C93 %1006.4 hPa4 kmWNW (290°)11.1 km/hOvercast
8:54 AM2.8 °C1.7 °C93 %1007.1 hPa9.7 kmWest (270°)11.1 km/hOvercast
9:04 AM3 °C2 °C93 %1006.4 hPa11.3 kmWest (260°)7.4 km/hOvercast
9:45 AM4 °C2 °C87 %1006.4 hPa16.1 kmWest (280°)13 km/hMostly Cloudy
9:54 AM4.4 °C2.8 °C89 %1007.5 hPa16.1 kmWest (280°)16.7 km/hMostly Cloudy
10:54 AM5 °C1.7 °C79 %1008.8 hPa16.1 kmWNW (290°)24.1 km/h35.2 km/hOvercast
11:54 AM5 °C1.7 °C79 %1009.5 hPa16.1 kmWest (270°)24.1 km/h37 km/hOvercast
12:54 PM6.1 °C2.2 °C76 %1009.5 hPa16.1 kmWNW (290°)25.9 km/h35.2 km/hOvercast
1:54 PM6.7 °C2.2 °C73 %1010.2 hPa16.1 kmWNW (300°)24.1 km/h37 km/hOvercast
2:54 PM7.2 °C2.8 °C74 %1010.2 hPa16.1 kmWNW (290°)24.1 km/h33.3 km/hOvercast
3:54 PM8.3 °C1.7 °C63 %1010.2 hPa16.1 kmWNW (290°)29.6 km/h44.4 km/hMostly Cloudy
4:54 PM10 °C0.6 °C52 %1010.2 hPa16.1 kmWNW (300°)33.3 km/h38.9 km/hScattered Clouds
5:54 PM10 °C0 °C50 %1010.2 hPa16.1 kmWest (280°)24.1 km/hClear
6:54 PM9.4 °C-2.2 °C44 %1011.5 hPa16.1 kmWNW (300°)25.9 km/h35.2 km/hClear
7:54 PM7.8 °C-1.7 °C51 %1012.2 hPa16.1 kmWest (280°)16.7 km/hClear
8:54 PM7.2 °C-2.8 °C49 %1013.9 hPa16.1 kmWNW (300°)20.4 km/h31.5 km/hClear
9:54 PM6.1 °C-3.9 °C49 %1014.6 hPa16.1 kmWNW (300°)24.1 km/hClear
10:54 PM4.4 °C-5.6 °C49 %1016.3 hPa16.1 kmWNW (300°)18.5 km/hClear
11:54 PM2.8 °C-5.6 °C54 %1017.6 hPa16.1 kmNW (310°)20.4 km/hClear
Hourly data recorded from KSUS, located 0 kilometers away from St. Louis, Missouri







STORIES FROM OUR PARTNERS